Время (UTC), дата Ветер
(°,м/с) 
Видим.   Явления Облачность Т
(°С)
Тd
(°С)
f(%) Тe
(°С)
Pmin
(гПа)
dP
(гПа)
Po
(мм)
O2
(г/м3)
Тmin Tmax R s Состояние
почвы
00 14.04.16 280 (З) 20000 м    6/3 1000 м кучево-дожд., средняя 
[Cb calv|Ac trans]
+11.1 +9.9 92 +13  1010.4  -0.5  718  276           
03 14.04.16 290 (З) 10 км    9/4 600 м кучево-дожд., средняя 
[Cb calv|Ac trans]
+10.4 +9.5 94 +12  1010.7  0.2  718  277  +10.3        влажная 
06 14.04.16 260 (З) 20000 м  в посл. час ливневой дождь  6/6 200 м кучево-дожд. 
[Cb calv]
+12.5 +10.5 88 +15  1011.4  719  275           
09 14.04.16 270 (З) 6{10}  20000 м  слаб. ливневой дождь  8/5 300 м кучево-дожд., средняя 
[Cb cap|Ac trans]
+13.3 +9.8 79 +14  1011.2  719  274           
12 14.04.16 280 (З) 4{11}  20000 м  {ливн. осадки}  8/5 600 м кучево-дожд., средняя 
[Cb calv|Ac trans]
+16.8 +9 60 +18  1009.8  -0.8  718  271           
15 14.04.16 280 (З) 20000 м    6/4 600 м средняя 
[Sc diur, vesp|Ac trans]
+15.6 +9 65 +17  1010.1  -0.1  719  272    +17.2     
18 14.04.16 250 (З) 20000 м    3/3 1000 м кучево-дожд. 
[Cb calv]
+12.4 +8.9 79 +15  1011.9  -0.1  719  276           
21 14.04.16 250 (З) 20000 м    3/0 средняя 
[Ac trans]
+9.6 +7.8 89 +10  1012.2  -0.3  719  279           
00 15.04.16 220 (ЮЗ) 20000 м    ясно 
+8.4 +7.6 95 +8  1012  -0.4  719  280           
03 15.04.16 150 (ЮВ) 20000 м    3/0 верхняя 
[Ci fib]
+11.4 +7.3 76 +12  1011.5  719  277  +7.5        влажная 
06 15.04.16 130 (ЮВ) 20000 м    5/0 верхняя 
[Ci fib]
+17.4 +8.5 56 +18  1010.5  0.2  719  271           
09 15.04.16 120 (ЮВ) 20000 м    8/3 600 м верхняя 
[Cu hum|Ci fib]
+19.9 +7.9 46 +21  1009.5  -0.6  719  268           
12 15.04.16 130 (ЮВ) 20000 м    8/5 600 м верхняя 
[Cu hum|Ci fib]
+20.2 +9.2 49 +21  1008.7  -0.6  718  268           
15 15.04.16 140 (ЮВ) 20000 м    6/3 600 м кучево-дожд., средняя 
[Cb calv|Ac trans]
+17.5 +9.9 61 +20  1009.1  0.1  718  270    +20.7       
18 15.04.16 130 (ЮВ) 20000 м    3/1 1000 м средняя 
[Sc|Ac trans]
+13.4 +9.8 79 +15  1009.4  -0.4  718  274           
21 15.04.16 190 (Ю) 20000 м    4/0 средняя 
[Ac trans]
+13 +9.3 78 +14  1009.6  -0.1  718  274           
00 16.04.16 290 (З) 6-10{12}  20000 м    8/3 600 м кучево-дожд., средняя 
[Cb calv|Ac trans]
+11.6 +7.7 77 +10  1010.8  0.9  719  276           
03 16.04.16 290 (З) 6-10{14}  20000 м    10/5 600 м кучево-дожд., средняя 
[Cb cap|Ac und]
+10.3 +7.9 85 +9  1013.4  2.2  720  278  +10.3        сухая 
06 16.04.16 260 (З) 7-12{12}  20000 м  {ливн. осадки}  10/6 300 м кучево-дожд., средняя 
[Cb calv|Ac und]
+12.1 +8 76 +11  1014.6  1.5  721  277  +9.7         
09 16.04.16 270 (З) 12-17{17}  20000 м    9/6 600 м кучево-дожд., средняя 
[Cb calv|Ac trans]
+13 +6.6 65 +11  1015.4  0.9  722  277           
12 16.04.16 280 (З) 10-15{17}  20000 м    8/4 600 м кучево-дожд., средняя 
[Cb calv|Ac trans]
+13.2 +4.8 57 +11  1016.5  723  277           
15 16.04.16 280 (З) 8-14{17}  20000 м    10/5 600 м кучево-дожд., средняя 
[Cb calv|Ac und]
+9.9 +4.5 69 +8  1018.7  1.5  724  281    +14.4     
18 16.04.16 280 (З) 9-15{15}  20000 м    3/0 средняя 
[Ac trans]
+8.7 +3 67 +6  1020.5  1.5  725  283           
21 16.04.16 260 (З) 8-11{15}  20000 м    4/0 средняя 
[Ac trans]
+7.3 +3.1 75 +5  1021.3  0.5  725  284           
00 17.04.16 260 (З) 7-10{11}  20000 м    ясно 
+6.6 +1.5 70 +4  1021.6  0.2  725  285           
03 17.04.16 240 (ЮЗ) 5{10}  20000 м    1/0 верхняя 
[Ci fib]
+5.6 +0.8 71 +4  1022  0.2  726  286  +5.3        сухая 
06 17.04.16 280 (З) 7-10{10}  20000 м    ясно 
+12.6 +1.5 47 +11  1020.5  -0.2  725  279           
09 17.04.16 290 (З) 4{10}  20000 м    3/3 600 м 
[Cu hum]
+15.7 +1.7 39 +16  1019.8  0.1  725  276           
12 17.04.16 330 (СЗ) 3{13}  20000 м    4/4 1000 м 
[Cu hum]
+17 +2.1 37 +17  1018.9  -0.6  725  275           
15 17.04.16 320 (СЗ) 20000 м    4/0 верхняя 
[Ci fib]
+15.5 +2.8 42 +16  1019.2  725  276    +17.4       
18 17.04.16 280 (З) 20000 м    6/0 верхняя 
[Ci]
+11.8 +2.7 54 +12  1020.1  0.2  725  280           
21 17.04.16 270 (З) 20000 м    3/0 средняя 
[Ac trans]
+10.1 +2.9 61 +10  1020.4  725  281           
00 18.04.16 280 (З) 20000 м    3/0 средняя 
[Ac trans]
+10.4 +3.1 61 +10  1019.9  -0.4  725  281           
03 18.04.16 270 (З) 20000 м    3/0 средняя 
[Ac trans]
+8.6 +3.1 68 +7  1020.5  0.2  725  283  +6.8        сухая 
06 18.04.16 280 (З) 20000 м    4/0 верхняя 
[Ci]
+15.8 +2.5 41 +15  1019  0.1  725  276           
09 18.04.16 270 (З) 5{10}  20000 м    ясно 
+19.2 +3.7 36 +20  1017.3  -1  724  272           
12 18.04.16 290 (З) 6-10{10}  20000 м    4/3 600 м верхняя 
[Cu hum|Ci fib]
+21.1 +4.2 33 +21  1015.3  -1  723  270           
15 18.04.16 280 (З) 6-10{12}  20000 м    6/0 верхняя 
[Ci]
+19.4 +3.6 35 +20  1015  -0.6  722  271    +21.3       
18 18.04.16 270 (З) 6{10}  20000 м    5/0 верхняя 
[Ci fib]
+15.8 +4.3 46 +15  1016.1  0.4  723  275           
21 18.04.16 250 (З) 7{10}  20000 м    8/3 600 м средняя 
[Sc|Ac trans]
+15.8 +0.4 35 +15  1015.1  -1  722  275           
00 19.04.16 260 (З) 6{10}  20000 м    3/0 средняя 
[Ac trans]
+15.1 +0.4 37 +14  1014.3  -0.8  721  275           
03 19.04.16 260 (З) 8-11{12}  20000 м    5/3 1000 м кучево-дожд., средняя 
[Cb calv|Ac trans]
+15.2 +2.4 42 +14  1014  -0.2  721  275  +13.6        сухая 
06 19.04.16 280 (З) 9-13{15}  20000 м    3/0 средняя 
[Ac trans]
+19.4 +3.1 34 +19  1013.6  0.3  721  271           
09 19.04.16 280 (З) 8-12{13}  20000 м    5/0 верхняя 
[Ci fib]
+22.8 +5.5 33 +23  1012.6  -0.4  721  267           
12 19.04.16 280 (З) 6{12}  20000 м    8/3 1000 м кучево-дожд., средняя, верхняя 
[Cb calv|Ac trans|Ci fib]
+24.1 +6.7 33 +24  1011.3  -1  720  266           
15 19.04.16 290 (З) 6{12}  20000 м    8/0 средняя, верхняя 
[Ac trans|Ci fib]
+21 +4.7 34 +21  1012.1  0.2  721  269    +24.3       
18 19.04.16 270 (З) 20000 м    8/0 средняя 
[Ac trans]
+17.8 +3 37 +18  1013.4  0.7  721  272           
21 19.04.16 300 (СЗ) 4{10}  20000 м    3/0 средняя 
[Ac trans]
+16.2 +2.1 39 +16  1013.5  -0.2  721  274           
00 20.04.16 280 (З) 20000 м    8/0 средняя 
[Ac trans]
+14.7 +1.1 40 +14  1013.8  0.1  721  275           
03 20.04.16 270 (З) 20000 м    8/0 средняя 
[Ac trans]
+13 +6.8 66 +13  1014.8  0.7  722  276  +12.6        сухая 
06 20.04.16 170 (Ю) 20000 м    9/0 средняя 
[Ac trans]
+18.4 +8.7 53 +19  1013.8  722  271           
09 20.04.16 130 (ЮВ) 20000 м    8/0 средняя 
[Ac trans]
+21.3 +8.1 43 +21  1012.2  -1  721  268           
12 20.04.16 110 (В) 20000 м    9/0 средняя 
[Ac trans]
+22.2 +9.8 45 +24  1010.4  -1.5  720  266           
15 20.04.16 120 (ЮВ) 20000 м    10/0 средняя 
[Ac und]
+20.1 +10.5 54 +23  1009.2  -1.4  719  268    +22.8       
18 20.04.16 110 (В) 6-10{10}  20000 м    10/0 средняя 
[Ac und]
+18.5 +9.8 57 +21  1007.6  -1.8  717  269           
21 20.04.16 090 (В) 3{10}  20000 м    10/0 средняя 
[Ac und]
+17.4 +9.5 60 +19  1006.7  -1.1  716  270           
00 21.04.16 260 (З) 8-12{12}  20000 м    ясно средняя 
[Ac trans]
+17 +7.1 52 +16  1007.5  0.7  717  271           
03 21.04.16 270 (З) 11-17{17}  10 км  слаб. ливневой дождь  10/5 1000 м кучево-дожд., средняя 
[Cb cap|Ac und]
+13.7 +9.4 75 +13  1006.8  -1.2  716  273  +13.7        влажная 
06 21.04.16 280 (З) 9-15{17}  10 км  слаб. ливневой дождь  10/6 600 м кучево-дожд., средняя, верхняя 
[Cb cap|Ac und|Ci fib]
+9.4 +7.7 89 +7  1010.8  718  278  +9.4         
09 21.04.16 280 (З) 11-16{18}  20000 м  слаб. ливневой дождь  10/10 600 м 
+7.8 +5.3 84 +5  1013.9  2.7  720  281           
12 21.04.16 280 (З) 10-16{19}  20000 м  в посл. час ливневой дождь  10/6 600 м кучево-дожд., средняя 
[Cb calv|Ac und]
+9.6 +4.3 69 +7  1014.5  1.4  721  280           
15 21.04.16 270 (З) 10-15{16}  20000 м    10/3 600 м кучево-дожд., средняя 
[Cb calv|Ac und]
+7.5 +2.7 72 +4  1016.2  1.2  722  283    +13.7     
18 21.04.16 260 (З) 10-14{17}  20000 м    10/3 1000 м средняя 
[Sc|Ac und]
+6.2 +1 69 +3  1019.7  724  285           
21 21.04.16 270 (З) 6-10{17}  20000 м    3/0 средняя 
[Ac trans]
+3.7 +0.4 79 +1  1021.1  0.8  725  288           
00 22.04.16 260 (З) 9-14{15}  20000 м    3/3 1000 м 
[Sc]
+4.1 +0 75 1021.2  0.2  725  288           
03 22.04.16 260 (З) 11-16{17}  20000 м    3/1 600 м средняя 
[Sc|Ac trans]
+4 +0.4 77 1021.4  0.2  725  288  +3.7        влажная 
06 22.04.16 270 (З) 10-15{18}  20000 м  {дождь}  6/6 300 м 
[Sc]
+7 +2.3 72 +4  1023.1  2.2  727  285  +3.6         
09 22.04.16 260 (З) 7-11{17}  20000 м    6/6 1000 м 
[Sc]
+9.3 -0.7 50 +7  1022.9  0.2  727  283           
12 22.04.16 280 (З) 9-15{17}  20000 м    5/5 1000 м 
[Sc]
+11.1 -2.5 38 +9  1021.6  -1  726  281           
15 22.04.16 280 (З) 7-10{16}  20000 м    ясно 
+9.9 -3.1 40 +8  1021.7  0.1  726  283    +11.4  0.3     
18 22.04.16 220 (ЮЗ) 3{11}  20000 м    ясно 
+4.4 -0.9 68 +3  1023  0.2  726  288           
21 22.04.16 280 (З) 20000 м    ясно 
+4.3 -1.7 65 +3  1021.5  -1.4  725  288           
00 23.04.16 130 (ЮВ) 20000 м    ясно 
+3.5 -2.2 66 +3  1020.3  -1.3  724  288           
03 23.04.16 150 (ЮВ) 20000 м    ясно 
+4.5 -2.6 60 +4  1018.8  -1.3  723  287  +1.8        сухая 
06 23.04.16 130 (ЮВ) 20000 м    ясно 
+11.4 +3 56 +11  1017  -0.3  723  279           
09 23.04.16 020 (С) 20000 м    ясно 
+15.6 -4.2 25 +16  1015.5  -0.7  722  276           
12 23.04.16 050 (СВ) 20000 м    3/0 верхняя 
[Ci fib]
+17.8 -3.7 23 +19  1014.1  -1  722  273           
15 23.04.16 050 (СВ) 20000 м    8/0 верхняя 
[Ci fib]
+15.7 -1.5 31 +16  1013.9  -0.4  721  275    +18.3       
18 23.04.16 060 (СВ) 20000 м    9/0 средняя, верхняя 
[Ac trans|Ci fib]
+10.8 -0.1 47 +10  1015  0.1  721  279           
21 23.04.16 090 (В) 20000 м    4/0 верхняя 
[Ci fib]
+7.8 -0.1 57 +7  1014.1  -1.4  720  282           
00 24.04.16 110 (В) 20000 м    3/0 верхняя 
[Ci fib]
+6.7 +0.5 65 +5  1013  -1.3  719  283           
03 24.04.16 100 (В) 20000 м    6/0 верхняя 
[Ci fib]
+6.9 +3.4 78 +6  1011.9  -1  719  282  +5.8        сухая 
06 24.04.16 100 (В) 9-11{13}  20000 м    6/0 верхняя 
[Ci fib]
+14.6 +3.4 47 +13  1009.3  -1  718  274           
09 24.04.16 090 (В) 8-12{12}  20000 м    8/0 средняя 
[Ac trans]
+17.8 +5.5 44 +17  1007.7  -1  717  270           
12 24.04.16 120 (ЮВ) 7-10{12}  20000 м    9/0 верхняя 
[Ci fib]
+17.7 +4.8 42 +17  1006.7  -1  716  270           
15 24.04.16 110 (В) 7{11}  20000 м    8/0 верхняя 
[Ci fib]
+14.9 +6.4 57 +14  1006.1  -1  716  272    +18.2       
18 24.04.16 140 (ЮВ) 20000 м    8/0 верхняя 
[Ci fib]
+12.2 +7.2 71 +12  1006.1  -0.4  715  275           
21 24.04.16 140 (ЮВ) 20000 м    10/0 средняя 
[Ac und]
+11.7 +7.6 76 +11  1004.6  -1.5  714  275           
00 25.04.16 150 (ЮВ) 6{10}  20000 м    8/0 средняя 
[Ac trans]
+11.6 +7.1 74 +10  1003.2  -1.4  713  274           
03 25.04.16 100 (В) 20000 м    9/0 средняя 
[Ac trans]
+10.9 +7.1 77 +11  1002.3  -1  712  275  +10.1        сухая 
06 25.04.16 130 (ЮВ) 4{10}  20000 м    6/0 средняя 
[Ac trans]
+16.1 +8.1 59 +16  1000.1  -1.1  711  269           
09 25.04.16 090 (В) 20000 м    8/1 1000 м кучево-дожд., средняя 
[Cb calv|Ac trans]
+20.6 +9.5 49 +22  998.8  -0.5  711  265           
12 25.04.16 020 (С) 20000 м    9/3 1000 м кучево-дожд., средняя 
[Cb calv|Ac trans]
+17.9 +10.5 62 +21  999.6  -0.5  711  267           
15 25.04.16 110 (В) 20000 м    10/5 1000 м кучево-дожд., средняя 
[Cb calv|Ac und]
+15.4 +10.1 71 +18  1002.1  713  270    +21.6       
18 25.04.16 250 (З) 20000 м  слаб. ливневой дождь  10/6 600 м кучево-дожд., средняя 
[Cb cap|Ac und]
+14.4 +10.2 76 +17  1004.1  1.6  714  271           
21 25.04.16 140 (ЮВ) 20000 м  слаб. ливневой дождь  10/8 600 м кучево-дожд., средняя 
[Cb cap|Ac und]
+12.8 +11.8 94 +18  1004.7  0.3  714  273           
00 26.04.16 290 (З) 20000 м  {ливн. осадки}  6/3 600 м кучево-дожд., средняя 
[Cb calv|Ac trans]
+11.8 +9.7 87 +14  1005.8  0.8  715  274           
03 26.04.16 320 (СЗ) 20000 м    1/0 средняя 
[Ac trans]
+11.1 +8.5 84 +11  1007  716  276  +10.6      влажная 
06 26.04.16 350 (С) 20000 м    3/0 средняя 
[Ac trans]
+15.7 +9.1 65 +18  1007.5  1.3  717  271           
09 26.04.16 020 (С) 20000 м    4/4 600 м 
[Cu hum]
+18.7 +7.1 47 +19  1007.3  0.3  717  269           
12 26.04.16 060 (СВ) 20000 м    5/5 1000 м 
[Cu hum]
+20 +9.1 49 +21  1007.4  0.4  717  268           
15 26.04.16 080 (В) 20000 м    8/3 1000 м кучево-дожд., средняя 
[Cb calv|Ac trans]
+18.4 +8.9 54 +20  1007.8  -0.1  717  269    +20.3       
18 26.04.16 100 (В) 20000 м    5/0 средняя 
[Ac trans]
+13.9 +8.8 71 +14  1009.4  0.8  718  274           
21 26.04.16 080 (В) 20000 м    4/0 средняя 
[Ac trans]
+12.9 +7.9 72 +12  1008.8  -0.8  717  275           
00 27.04.16 110 (В) 20000 м    5/0 средняя 
[Ac trans]
+10.8 +6.8 76 +10  1008.4  -0.7  717  277           
03 27.04.16 150 (ЮВ) 20000 м    10/4 1000 м кучево-дожд., средняя 
[Cb calv|Ac und]
+12.2 +7.7 74 +13  1009  0.8  717  275  +10.4        сухая 
06 27.04.16 160 (Ю) 20000 м    10/3 1000 м средняя 
[Sc diur, vesp|Ac und]
+15.5 +8.7 64 +15  1009  0.6  718  272           
09 27.04.16 280 (З) 20000 м    10/4 600 м средняя 
[Sc|Ac und]
+17.5 +10.4 63 +20  1009.4  0.8  718  270           
12 27.04.16 290 (З) 8-13{13}  20000 м    10/10 600 м 
+15.4 +9.7 69 +16  1011.9  720  273           
15 27.04.16 290 (З) 6-11{13}  20000 м    9/5 1000 м средняя 
[Sc|Ac trans]
+15 +5.7 54 +14  1013.7  1.5  721  274    +18.2       
18 27.04.16 290 (З) 5{12}  20000 м    6/5 1000 м средняя 
[Sc|Ac trans]
+11.5 +5.6 67 +10  1016.1  1.7  722  278           
21 27.04.16 290 (З) 6-10{10}  20000 м    8/4 1000 м средняя 
[Sc|Ac trans]
+10.2 +4.5 68 +9  1016.4  722  280           
00 28.04.16 280 (З) 6-10{11}  20000 м    5/0 средняя 
[Ac trans]
+8.1 +4.8 80 +6  1017.2  0.4  722  282           
03 28.04.16 280 (З) 3{12}  20000 м    3/0 средняя 
[Ac trans]
+7.5 +4.7 82 +7  1018.5  1.1  723  283  +7.1        сухая 
06 28.04.16 270 (З) 20000 м    3/3 600 м 
[Sc]
+12.1 +5.3 63 +12  1018.2  0.6  724  278           
09 28.04.16 260 (З) 20000 м    4/3 600 м средняя 
[Sc|Ac trans]
+16.4 +2.9 40 +16  1017.3  0.1  724  275           
12 28.04.16 290 (З) 20000 м    4/4 1000 м 
[Sc]
+18 +3.6 38 +19  1016.8  -0.2  724  273           
15 28.04.16 340 (С) 20000 м    4/4 1000 м 
[Sc]
+16.5 +5.4 48 +17  1017.3  0.2  724  274    +18.4       
18 28.04.16 080 (В) 20000 м    3/1 1000 м средняя 
[Sc|Ac trans]
+11.8 +6.1 68 +13  1019.3  1.1  725  279           
21 28.04.16 080 (В) 20000 м    4/0 средняя 
[Ac trans]
+10.7 +6 73 +11  1019.2  -0.3  724  280           
00 29.04.16 020 (С) 20000 м    9/0 средняя 
[Ac trans]
+10.7 +6.4 75 +12  1019  -0.2  724  280           
03 29.04.16 050 (СВ) 20000 м    9/0 средняя 
[Ac trans]
+11.2 +7.7 79 +11  1018.9  724  279  +9.7        сухая 
06 29.04.16 090 (В) 20000 м    9/3 1000 м средняя 
[Sc|Ac trans]
+12 +8.9 81 +12  1020.3  1.5  725  278           
09 29.04.16 060 (СВ) 20000 м    10/3 600 м средняя 
[Sc|Ac und]
+12.9 +9.4 79 +13  1020.1  725  277           
12 29.04.16 080 (В) 20000 м  слаб. ливневой дождь  10/6 600 м кучево-дожд., средняя 
[Cb cap|Ac und]
+13.4 +9.3 76 +14  1019.8  -0.2  725  277           
15 29.04.16 070 (В) 20000 м  в посл. час ливневой дождь  9/4 600 м кучево-дожд., средняя 
[Cb calv|Ac trans]
+12.2 +9.9 86 +14  1019.9  0.1  725  278    +14.2  0.3     
18 29.04.16 080 (В) 20000 м  в посл. час ливневой дождь  10/5 600 м кучево-дожд., средняя 
[Cb calv|Ac und]
+11.3 +9.1 86 +13  1020.1  725  279           
21 29.04.16 100 (В) 20000 м    8/3 1000 м средняя 
[Sc|Ac trans]
+10.4 +8.6 89 +12  1019.4  -0.8  724  280           
00 30.04.16 130 (ЮВ) 20000 м    6/0 средняя 
[Ac trans]
+9.7 +8.3 91 +10  1018.5  -0.9  724  280           
03 30.04.16 140 (ЮВ) 20000 м    8/0 средняя 
[Ac trans]
+9.8 +8 89 +10  1017.9  -0.6  723  280  +8.5        влажная 
06 30.04.16 120 (ЮВ) 20000 м    4/3 1000 м средняя 
[Sc|Ac trans]
+14 +8.8 71 +14  1017.1  0.1  723  276           
09 30.04.16 130 (ЮВ) 20000 м    8/5 600 м средняя 
[Cu hum|Ac trans]
+18.1 +7 48 +18  1015.5  0.1  723  272           
12 30.04.16 120 (ЮВ) 20000 м    8/4 600 м верхняя 
[Cu med, cong|Ci fib]
+18.9 +6.3 44 +19  1014.4  -0.8  722  271           
15 30.04.16 130 (ЮВ) 20000 м    8/3 600 м верхняя 
[Cu hum|Ci fib]
+17.4 +7.1 51 +18  1014.2  -0.4  722  272    +19.7       
18 30.04.16 090 (В) 20000 м  гроза без осадков  8/5 1000 м кучево-дожд., средняя 
[Cb calv|Ac trans]
+13.7 +7.8 67 +13  1016.2  1.2  723  276           
21 30.04.16 290 (З) 20000 м  слаб. ливневой дождь{гроза}  8/5 600 м кучево-дожд., средняя 
[Cb cap|Ac trans]
+11.7 +7.2 74 +11  1015.7  -0.8  722  278           
00 01.05.16 260 (З) 20000 м  {гроза, ливн. осадки}  8/3 1000 м средняя 
[Sc diur, vesp|Ac trans]
+9.7 +7.8 88 +10  1016.2  0.1  722  280           
03 01.05.16 300 (СЗ) 20000 м    8/3 1000 м средняя 
[Sc|Ac trans]
+11 +7.6 80 +11  1016.1  -0.1  722  278  +7.8    0.3    влажная 
06 01.05.16 270 (З) 20000 м    4/1 300 м верхняя 
[Sc|Ci fib]
+15.1 +8.8 66 +15  1015.8  0.5  722  274           
09 01.05.16 290 (З) 7-11{12}  20000 м    8/4 600 м кучево-дожд., верхняя 
[Cb calv|Ci fib]
+16.8 +8.5 58 +16  1015.8  0.3  723  273           
12 01.05.16 290 (З) 8-13{13}  20000 м    6/3 600 м кучево-дожд., верхняя 
[Cb calv|Ci fib]
+17.6 +5.1 44 +17  1015.6  0.1  723  273           
15 01.05.16 320 (СЗ) 4{13}  20000 м    4/3 600 м средняя 
[Sc diur, vesp|Ac cuf]
+15.6 +5.2 50 +16  1017.1  723  275    +18.1       
18 01.05.16 310 (СЗ) 20000 м    4/0 средняя 
[Ac lent]
+11.7 +5.6 66 +12  1019.6  1.7  725  279           
21 01.05.16 330 (СЗ) 20000 м    4/0 средняя 
[Ac trans]
+9.5 +6.7 83 +9  1020.2  0.1  725  281           
00 02.05.16 320 (СЗ) 20000 м    3/0 средняя 
[Ac trans]
+7.6 +6.4 92 +8  1020.2  -0.3  725  283           
03 02.05.16 320 (СЗ) 0700 м  туман  6/0 средняя 
[Ac trans]
+7.3 +6.5 95 +7  1021  0.7  725  283  +6.6        сухая 
06 02.05.16 020 (С) 20000 м  {туман}  6/6 300 м 
[Sc]
+11.6 +4.5 62 +11  1021.3  726  280           
09 02.05.16 030 (СВ) 20000 м    8/8 600 м 
[Cu hum]
+15.3 +3.2 44 +17  1019.9  -0.7  725  276           
12 02.05.16 030 (СВ) 20000 м    8/8 600 м 
[Cu hum]
+15.3 +1.7 40 +16  1018.8  -1  725  276           
15 02.05.16 360 (С) 20000 м    8/0 средняя 
[Ac trans]
+14.4 +2.6 45 +15  1018.7  -0.3  724  277    +16       
18 02.05.16 020 (С) 20000 м    4/0 средняя 
[Ac trans]
+10.8 +1.5 53 +12  1019.3  724  280           
21 02.05.16 140 (ЮВ) 20000 м    3/0 средняя 
[Ac trans]
+8.8 +2 62 +9  1018.6  -1  724  282           
00 03.05.16 тихо ()   20000 м    5/0 средняя 
[Ac trans]
+9.2 +1.3 58 +9  1017.2  -1.3  723  281           
03 03.05.16 тихо ()   20000 м    8/3 1000 м средняя 
[Sc|Ac trans]
+8.7 +1.9 62 +9  1016.5  -0.7  722  282  +6.1        сухая 
06 03.05.16 090 (В) 20000 м    4/3 1000 м средняя 
[Sc|Ac trans]
+14.9 +2.2 42 +16  1015.2  0.1  722  275           
09 03.05.16 100 (В) 20000 м    5/4 600 м средняя 
[Cu hum|Ac trans]
+16.9 +1.2 35 +18  1014.2  -0.5  722  274           
12 03.05.16 050 (СВ) 20000 м    8/3 1000 м средняя, верхняя 
[Cu hum|Ac trans|Ci fib]
+18.1 +2.4 35 +18  1012.5  -1.5  720  272           
15 03.05.16 050 (СВ) 20000 м    3/0 средняя, верхняя 
[Ac trans|Ci fib]
+16.2 +1.7 38 +16  1011.9  -0.9  720  273    +18.7       
18 03.05.16 050 (СВ) 20000 м    ясно 
+10.9 +3.5 60 +9  1012.6  -0.3  720  278           
21 03.05.16 070 (В) 20000 м    ясно 
+8 +3.2 72 +6  1011.8  -1.3  719  281           
00 04.05.16 070 (В) 20000 м    ясно 
+6.2 +2.6 78 +4  1010.1  -2  717  282           
03 04.05.16 090 (В) 20000 м    3/0 средняя 
[Ac trans]
+7.3 +2.8 73 +5  1008.7  -1.1  716  281  +5.4        сухая 
06 04.05.16 110 (В) 10-14{15}  20000 м    8/3 600 м средняя, верхняя 
[Sc|Ac trans|Ci fib]
+12.9 +7.8 71 +11  1007  -0.6  716  274           
09 04.05.16 110 (В) 9-12{15}  20000 м    10/5 600 м средняя 
[Sc|Ac und]
+16.2 +6.8 54 +15  1006  -0.4  716  271           
12 04.05.16 090 (В) 5{15}  10 км  слаб. ливневой дождь  10/5 600 м кучево-дожд., средняя 
[Cb cap|Ac und]
+16.2 +6.8 54 +16  1006  0.1  716  271           
15 04.05.16 070 (В) 10 км  слаб. ливневой дождь  10/6 600 м кучево-дожд., средняя 
[Cb cap|Ac und]
+12.2 +10.9 92 +16  1007.6  716  274    +17.6     
18 04.05.16 050 (СВ) 20000 м  {ливн. осадки}  10/5 600 м средняя 
[Sc diur, vesp|Ac und]
+11.3 +10 92 +13  1008.2  0.4  717  275           
21 04.05.16 070 (В) 20000 м    10/5 600 м средняя 
[Sc|Ac und]
+10.6 +7.3 80 +10  1008.5  0.2  717  277           
00 05.05.16 100 (В) 20000 м  слаб. дождь  10/4 600 м средняя 
[Sc|Ac und]
+9.6 +8.1 90 +10  1008.6  -0.1  717  277           
03 05.05.16 180 (Ю) 20000 м  {дождь}  9/4 1000 м средняя 
[Sc|Ac trans]
+10.3 +8.9 91 +11  1009.3  0.8  717  277  +9.3      влажная 
06 05.05.16 130 (ЮВ) 20000 м  {дождь}  10/3 1000 м средняя 
[Sc|Ac und]
+12.4 +10.8 90 +15  1009.9  1.1  718  275           
09 05.05.16 140 (ЮВ) 20000 м    10/3 600 м кучево-дожд., средняя 
[Cb cap|Ac und]
+15.1 +7.6 61 +15  1010  0.5  718  273           
12 05.05.16 120 (ЮВ) 20000 м  {ливн. осадки}  9/3 600 м кучево-дожд., средняя 
[Cb calv|Ac As]
+16 +7.5 57 +16  1009.7  0.1  718  272           
15 05.05.16 110 (В) 20000 м  в посл. час ливневой дождь  9/4 600 м кучево-дожд., средняя 
[Cb cap|Ac trans]
+14.2 +8 66 +15  1010.9  0.8  719  274    +17.1  0.3     
18 05.05.16 170 (Ю) 20000 м  {ливн. осадки}  8/3 1000 м кучево-дожд., средняя 
[Cb calv|Ac trans]
+11.3 +7.5 77 +12  1011.5  -0.1  719  277           
21 05.05.16 160 (Ю) 20000 м    8/3 1000 м средняя 
[Sc|Ac trans]
+10.3 +8.1 86 +10  1011.8  0.2  719  278           
00 06.05.16 090 (В) 20000 м  слаб. дождь  10/3 600 м средняя 
[Sc|Ac und]
+10.1 +8.3 89 +10  1011.8  0.1  719  278           
03 06.05.16 140 (ЮВ) 20000 м  {ливн. осадки, дождь}  10/3 1000 м кучево-дожд., средняя 
[Cb calv|Ac und]
+10.1 +8.3 89 +11  1011.8  719  278  +9.5        влажная 
06 06.05.16 090 (В) 20000 м  {ливн. осадки}  9/5 600 м кучево-дожд., средняя 
[Cb calv|Ac trans]
+14.3 +9.6 73 +15  1010.9  0.1  719  273           
09 06.05.16 120 (ЮВ) 4{10}  20000 м    10/6 600 м кучево-дожд., средняя 
[Cb cap|Ac und]
+14.7 +8.7 67 +15  1011  0.1  719  273           
12 06.05.16 110 (В) 20000 м    10/6 1000 м кучево-дожд., средняя 
[Cb calv|Ac und]
+15.8 +7.9 59 +16  1010.2  -0.6  719  272           
15 06.05.16 120 (ЮВ) 20000 м    9/4 1000 м кучево-дожд., средняя 
[Cb calv|Ac trans]
+14.3 +8.3 67 +14  1009.7  -0.7  718  273    +16.3       
18 06.05.16 100 (В) 20000 м    10/5 1000 м средняя 
[Sc|Ac und]
+13.3 +8.1 71 +13  1010.2  0.3  718  275           
21 06.05.16 050 (СВ) 20000 м    9/5 1000 м средняя 
[Sc|Ac trans]
+12.7 +7.9 73 +13  1010.1  -0.2  718  275           
00 07.05.16 070 (В) 20000 м  {ливн. осадки}  10/4 1000 м кучево-дожд., средняя 
[Cb calv|Ac und]
+10.8 +9.5 92 +11  1010.7  0.3  718  277           
03 07.05.16 070 (В) 10 км  {ливн. осадки}  10/3 600 м кучево-дожд., средняя 
[Cb cap|Ac und]
+10.5 +9.4 93 +11  1011.2  0.3  719  277  +10.4    0.3    влажная 
06 07.05.16 100 (В) 20000 м  {ливн. осадки}  8/4 300 м средняя 
[Sc diur, vesp|Ac trans]
+12.7 +10 84 +14  1011.8  719  275           
09 07.05.16 070 (В) 20000 м    9/4 600 м кучево-дожд., средняя, верхняя 
[Cb calv|Ac trans|Ci fib]
+16.4 +10.2 67 +18  1011.9  0.8  720  272           
18 07.05.16 260 (З) 10 км  слаб. ливневой дождь  10/8 300 м кучево-дожд., средняя 
[Cb cap|Ac und]
+10.7 +10 95 +12  1016.2  1.1  722  278           
21 07.05.16 250 (З) 20000 м  слаб. ливневой дождь  10/6 600 м кучево-дожд., средняя 
[Cb cap|Ac und]
+11 +10.3 95 +12  1016.6  0.5  723  278           
06 08.05.16 280 (З) 4000 м  дымка{ливн. осадки}  10/10 200 м 
[St]
+11.6 +10.6 94 +14  1019.1  1.3  724  278           
09 08.05.16 280 (З) 20000 м  {туман}  10/6 300 м средняя 
[Sc|Ac As]
+14.4 +10.3 76 +16  1019.5  0.9  725  276           
18 08.05.16 270 (З) 20000 м    3/0 средняя 
[Ac trans]
+11.7 +10 89 +14  1021.4  1.4  726  279           
21 08.05.16 300 (СЗ) 20000 м    8/8 300 м 
[St]
+11.7 +10.4 92 +14  1021.7  0.2  726  279           
00 09.05.16 300 (СЗ) 20000 м    3/0 средняя 
[Ac trans]
+10.8 +9.8 94 +12  1022.1  0.2  726  280           
06 09.05.16 050 (СВ) 20000 м    9/5 600 м кучево-дожд., средняя 
[Cb calv|Ac trans]
+14.6 +10.6 77 +19  1022.2  0.4  727  276           
09 09.05.16 080 (В) 20000 м    9/8 600 м средняя 
[Cu med, cong|Ac trans]
+17.7 +9.9 60 +20  1021.2  -0.4  727  273           
12 09.05.16 070 (В) 20000 м    8/5 1000 м кучево-дожд., средняя 
[Cb calv|Ac trans]
+18.3 +9.2 55 +20  1020.1  -1  726  272           
18 09.05.16 060 (СВ) 20000 м  {гроза}  6/3 1000 м кучево-дожд., средняя 
[Cb calv|Ac trans]
+14.3 +10.8 79 +17  1021.3  0.5  726  276           
21 09.05.16 140 (ЮВ) 20000 м    6/0 средняя 
[Ac trans]
+12.9 +10 83 +15  1021  0.5  726  277           
00 10.05.16 140 (ЮВ) 20000 м    ясно 
+12.1 +10 87 +14  1019.9  0.5  725  278           
06 10.05.16 110 (В) 20000 м    4/4 200 м 
[St]
+15.9 +12.1 78 +21  1019  0.1  725  274           
15 10.05.16 100 (В) 6{12}  20000 м    8/1 600 м верхняя 
[Cu hum|Ci fib]
+19.9 +8.6 48 +20  1014.2  -1.7  722  270    +21.8       
18 10.05.16 090 (В) 20000 м    8/0 средняя, верхняя 
[Ac trans|Ci]
+16.2 +9.5 64 +17  1015.1  0.2  722  273           
21 10.05.16 090 (В) 20000 м    6/0 верхняя 
[Ci fib]
+13.9 +9.8 76 +15  1014.5  -0.9  721  275           
00 11.05.16 100 (В) 20000 м    6/0 верхняя 
[Ci fib]
+12.1 +9.4 84 +12  1014  -0.8  721  276           
03 11.05.16 100 (В) 20000 м    10/0 средняя, верхняя 
[Ac trans|Ci]
+11 +9.8 92 +13  1014.1  0.1  721  277  +10.7        влажная 
06 11.05.16 100 (В) 20000 м    10/3 300 м верхняя 
[St|Ci fib]
+15.5 +11.4 77 +19  1012.4  -0.8  720  272           
09 11.05.16 150 (ЮВ) 20000 м    10/6 600 м верхняя 
[Sc|Ci fib]
+18.9 +10.7 59 +22  1012  0.3  720  269           
12 11.05.16 270 (З) 7-12{12}  4000 м  ливневой дождь  10/8 300 м кучево-дожд., средняя 
[Cb cap|Ac und]
+11.7 +10.2 91 +12  1014.2  0.8  721  277           
15 11.05.16 280 (З) 5{12}  20000 м  в посл. час ливневой дождь  6/3 300 м средняя 
[Sc diur, vesp|Ac trans]
+12.5 +10.1 85 +14  1014  -0.1  721  276    +18.9     
18 11.05.16 210 (ЮЗ) 4000 м  дымка{ливн. осадки}  4/0 средняя 
[Ac trans]
+8.6 +7.6 93 +9  1015.2  0.5  721  280           
21 11.05.16 270 (З) 20000 м  местами туман поземный  3/0 средняя 
[Ac trans]
+8.6 +7.8 95 +8  1014.5  -0.7  721  280           
00 12.05.16 210 (ЮЗ) 20000 м  местами туман поземный  3/0 средняя 
[Ac trans]
+7.8 +7 95 +8  1014.2  -0.5  720  281           
03 12.05.16 220 (ЮЗ) 20000 м    6/3 1000 м средняя 
[Sc|Ac trans]
+8.9 +7.8 93 +9  1013  -0.9  720  279  +6.7    0.3    влажная 
06 12.05.16 120 (ЮВ) 20000 м    6/3 1000 м средняя 
[Sc|Ac trans]
+14.5 +10.1 75 +17  1011.7  -0.2  719  273           
09 12.05.16 120 (ЮВ) 20000 м    5/5 600 м 
[Cu med, cong]
+18.3 +9.7 57 +20  1010  -1  719  270           
12 12.05.16 320 (СЗ) 20000 м    6/3 600 м средняя 
[Cu hum|Ac trans]
+19.5 +9.6 53 +23  1008.2  -1.5  718  268           
15 12.05.16 320 (СЗ) 20000 м    8/4 1000 м кучево-дожд., средняя 
[Cb calv|Ac trans]
+18.3 +9.1 55 +20  1008  -0.3  717  269    +20.2       
18 12.05.16 110 (В) 20000 м    3/1 1000 м средняя 
[Sc|Ac trans]
+13.6 +10.3 80 +17  1009.3  0.4  718  273           
21 12.05.16 310 (СЗ) 20000 м    6/0 средняя 
[Ac trans]
+13.8 +6.6 62 +14  1008.8  -0.5  717  274           
00 13.05.16 230 (ЮЗ) 20000 м    8/4 1000 м средняя 
[Sc|Ac trans]
+11.5 +6.5 71 +13  1008.6  -0.6  717  276           
03 13.05.16 210 (ЮЗ) 20000 м    1/0 средняя 
[Ac trans]
+12 +7.5 74 +12  1008.3  -0.6  717  275  +9.1        сухая 
06 13.05.16 240 (ЮЗ) 20000 м    3/3 600 м 
[Cu hum]
+16.9 +7.7 55 +18  1007.8  0.4  717  271           
09 13.05.16 280 (З) 20000 м    4/4 600 м 
[Cu hum]
+20.1 +5 37 +20  1006.8  -0.4  717  268           
12 13.05.16 280 (З) 20000 м    4/4 1000 м 
[Cu hum]
+20.7 +7.1 41 +21  1006.5  -0.2  717  267           
15 13.05.16 300 (СЗ) 20000 м    3/3 1000 м 
[Cu hum]
+19.9 +8.2 47 +21  1006.2  -0.2  716  268    +21       
18 13.05.16 050 (СВ) 20000 м    8/0 средняя 
[Ac trans]
+17.3 +7.9 54 +18  1007.2  0.5  717  270           
21 13.05.16 110 (В) 20000 м    10/3 1000 м кучево-дожд., средняя 
[Cb calv|Ac und]
+15.6 +9.2 66 +17  1006.6  -0.9  716  271           
00 14.05.16 110 (В) 20000 м    10/0 средняя 
[Ac und]
+14.6 +9.4 71 +16  1005.9  -0.9  715  272           
03 14.05.16 190 (Ю) 10 км    9/4 600 м кучево-дожд., средняя 
[Cb calv|Ac trans]
+13.8 +11 83 +17  1006.9  0.9  716  272  +13.5    0.8    сухая 
06 14.05.16 170 (Ю) 20000 м  {ливн. осадки}  9/4 1000 м средняя 
[Sc diur, vesp|Ac trans]
+18 +14.3 79 +28  1006  716  268  +12.9         
09 14.05.16 260 (З) 5{11}  20000 м    8/5 600 м верхняя 
[Cu hum|Ci fib]
+22.2 +13.7 59 +30  1006.3  717  264           
12 14.05.16 250 (З) 3{14}  20000 м  гроза без осадков{ливн. осадки} [макс. диам. градин 27 мм]  8/6 600 м кучево-дожд., верхняя 
[Cb calv|Ci fib]
+16.8 +15.9 94 +29  1007.3  0.1  717  269           
15 14.05.16 280 (З) 8-14{16}  20000 м  {гроза}  3/3 1000 м кучево-дожд. 
[Cb calv]
+21.7 +11.5 52 +26  1005.9  -0.6  716  265    +24  17     
18 14.05.16 320 (СЗ) 2{15}  20000 м  {гроза}  ясно 
+17.8 +12.2 70 +24  1008.8  2.2  718  269           
21 14.05.16 220 (ЮЗ) 20000 м    ясно 
+16.4 +7.5 56 +17  1009.3  0.2  718  272           
00 15.05.16 220 (ЮЗ) 20000 м    3/0 средняя 
[Ac trans]
+14.3 +7.4 63 +14  1009.2  0.2  718  273           
03 15.05.16 220 (ЮЗ) 20000 м  в посл. час ливневой дождь  8/3 1000 м кучево-дожд., средняя 
[Cb calv|Ac trans]
+15.4 +9.6 68 +17  1009.3  0.3  718  272  +13.8        влажная 
06 15.05.16 210 (ЮЗ) 20000 м  {ливн. осадки}  10/3 600 м кучево-дожд., средняя, верхняя 
[Cb cap|Ac As|Cs]
+20.7 +8.8 46 +21  1007.4  -0.9  717  267           
09 15.05.16 190 (Ю) 6{12}  20000 м    6/3 1000 м кучево-дожд., средняя, верхняя 
[Cb cap|Ac As|Ci fib]
+25.2 +9.6 37 +27  1004.5  -1.9  716  262           
12 15.05.16 250 (З) 3{14}  20000 м  гроза без осадков{ливн. осадки}  8/4 1000 м кучево-дожд., средняя, верхняя 
[Cb cap|Ac inh|Ci ing]
+21.2 +12.8 59 +27  1006.2  716  265           
15 15.05.16 250 (З) 9-14{14}  20000 м  в посл. час гроза{ливн. осадки}  8/4 1000 м кучево-дожд., средняя, верхняя 
[Cb cap|Ac inh|Ci ing]
+18.2 +7.7 50 +18  1007.6  0.7  717  269    +25.6     
18 15.05.16 260 (З) 6{17}  20000 м  ливневой дождь, в посл. час гроза  6/5 1000 м кучево-дожд., средняя 
[Cb calv|Ac trans]
+16.8 +6.1 49 +17  1009.7  1.8  718  272           
21 15.05.16 280 (З) 20000 м    4/0 верхняя 
[Ci fib]
+15.8 +7.2 57 +16  1010.2  0.3  719  272           
00 16.05.16 270 (З) 20000 м    ясно 
+13.4 +8.2 71 +13  1010  -0.6  718  274           
03 16.05.16 260 (З) 20000 м    8/0 верхняя 
[Ci fib]
+13.3 +9.6 78 +14  1009.8  -0.2  718  274  +11.2        влажная 
06 16.05.16 280 (З) 20000 м    10/0 средняя 
[As trans]
+15.6 +8.4 62 +15  1009.1  -0.2  718  272           
09 16.05.16 270 (З) 6{10}  20000 м    10/0 средняя 
[Ac und]
+17.5 +8.6 56 +17  1009.5  0.6  718  270           
12 16.05.16 270 (З) 6{10}  20000 м  слаб. ливневой дождь  10/5 1000 м кучево-дожд., средняя 
[Cb cap|Ac und]
+13.9 +10.4 79 +16  1010.9  0.8  719  274           
Время (UTC), дата Ветер
(°,м/с) 
Видим.   Явления Облачность Т
(°С)
Тd
(°С)
f(%) Тe
(°С)
Pmin
(гПа)
dP
(гПа)
Po
(мм)
O2
(г/м3)
Тmin Tmax R s Состояние
почвы